Location: El Centro
(32.7920°N, 115.5620°W)
Time: 01:02:13
(UTC-07:00)

Hamsat - Visible Passes

Search period start: 24 March 2017 00:00
Search period end: 03 April 2017 00:00
Orbit: 585 x 620 km, 97.6° (Epoch: 22 March)

Date Brightness Start Highest point End Pass type
(mag) Time Alt. Az. Time Alt. Az. Time Alt. Az.
24 Mar ? 04:39:57 10° NNE 04:44:09 63° E 04:45:01 50° SSE visible
25 Mar ? 04:51:43 10° NNE 04:55:56 89° ENE 04:57:08 47° SSW visible
26 Mar ? 05:03:32 10° N 05:07:44 64° WNW 05:09:14 37° SW visible
27 Mar ? 03:42:12 10° ENE 03:43:33 11° E 03:44:32 11° ESE visible
27 Mar ? 05:15:27 10° N 05:19:29 45° WNW 05:21:20 27° SW visible
28 Mar ? 03:52:48 10° NE 03:55:27 16° E 03:56:38 14° ESE visible
28 Mar ? 05:27:26 10° N 05:31:13 32° WNW 05:33:26 20° WSW visible
29 Mar ? 04:03:58 10° NE 04:07:18 22° E 04:08:43 19° SE visible
29 Mar ? 05:39:33 10° NNW 05:42:57 24° WNW 05:45:32 14° WSW visible
30 Mar ? 04:15:22 10° NE 04:19:09 31° E 04:20:49 23° SE visible
30 Mar ? 05:51:50 10° NNW 05:54:39 17° WNW 05:57:28 10° WSW visible
31 Mar ? 04:26:54 10° NNE 04:30:59 43° E 04:32:55 26° SSE visible
31 Mar ? 06:04:26 10° NW 06:06:20 13° WNW 06:08:13 10° W visible
01 Apr ? 04:38:33 10° NNE 04:42:47 62° E 04:45:00 27° S visible
02 Apr ? 04:50:17 10° NNE 04:54:34 88° E 04:57:05 25° S visible
